Regional Weather Roundup
Issued by NWS Wakefield, VA

Home | Current Version | Previous Version | Text Only | Print | Product List | Glossary On
Versions: 1 2 3 4 5 6 7 8 9 10 11 12 13 14 15 16 17 18 19 20 21 22 23 24 25 26 27 28 29 30 31 32 33 34 35 36 37 38 39 40 41 42 43 44 45 46 47 48 49 50
000
ASUS41 KAKQ 070410
RWRAKQ

REGIONAL WEATHER ROUNDUP
NATIONAL WEATHER SERVICE WAKEFIELD VA
1100 PM EST FRI MAR 06 2015

Note: "fair" indicates few or no clouds below 12,000 feet with no
significant weather and/or obstructions to visibility. * = Denotes
station may not report precipitation (e.g., rain,snow,etc.),
thunder or fog.

VAZ042-051-052>054-056-070500-
NORTHERN VIRGINIA

CITY           SKY/WX    TMP DP  RH WIND       PRES   REMARKS
WASH NATIONAL  CLEAR     24  12  60 SW3       30.44F
DULLES         CLEAR     10   5  80 CALM      30.41F
FORT BELVOIR   CLEAR     13  11  90 CALM      30.44F
QUANTICO       CLEAR     18  13  80 W6        30.46F
FREDERICKSBRG* CLEAR     16  15  95 CALM      30.44F
STAFFORD*      CLEAR     12  12 100 CALM      30.48S
WARRENTON      CLEAR     10  10  98 CALM      30.41F
CULPEPER*      CLEAR     10   7  85 CALM      30.41F
MANASSAS*      CLEAR      9   7  92 CALM      30.43F
LEESBURG*      CLEAR     12   9  85 SW3       30.41F
WINCHESTER     CLEAR     14   5  67 SW5       30.37S
FRONT ROYAL*   FAIR      18  12  79 CALM      30.36F
LURAY*         FAIR      12  10  92 CALM      30.36F
$$

VAZ048-049-060>072-079>083-070500-
CENTRAL AND SOUTH CENTRAL VIRGINIA

CITY           SKY/WX    TMP DP  RH WIND       PRES   REMARKS
RICHMOND       CLEAR     22  15  75 CALM      30.44F
CHESTERFIELD*  FAIR      19   7  58 CALM      30.45F
PETERSBURG*    CLEAR     19  18  96 CALM      30.46S
HANOVER        CLEAR     17  12  80 CALM      30.45F
TAPPAHANNOCK*  CLEAR     15  10  83 CALM      30.45F
QUINTON*       FAIR      18  16  90 CALM      30.45F
CHARLOTTSVILLE CLEAR     16  10  77 CALM      30.39F
GORDONSVILLE*  FAIR      10   8  91 CALM      30.40F
ORANGE*        CLEAR     12  10  92 CALM      30.42F
LOUISA*        CLEAR     16  10  79 S3        30.40S
BUMPASS*       FAIR      13  10  88 CALM      30.42F
FARMVILLE*     CLEAR     19  12  73 CALM      29.74F
CREWE*         FAIR      19  16  88 CALM      30.43S
FORT PICKETT*  FAIR      20  17  85 CALM      30.43S
CHASE CITY*    FAIR      23  21  92 CALM      30.42F
CLARKSVILLE*   FAIR      23  21  93 CALM      30.43S
SOUTH HILL*    CLEAR     20  16  86 CALM      30.50R
LAWRENCEVILLE* FAIR      21  17  84 CALM      30.44S
EMPORIA*       CLEAR     21  19  93 CALM      30.47F
$$

VAZ088>098-070500-
SOUTHEAST VIRGINIA

CITY           SKY/WX    TMP DP  RH WIND       PRES   REMARKS
NORFOLK        CLEAR     25  15  66 N6        30.45F
VIRGINIA BEACH PTCLDY    22  15  75 CALM      30.44S
NORFOLK NAVAL  CLEAR     27  15  61 N6        30.46F
WEST POINT*    CLEAR     19  15  82 CALM      30.47F
SALUDA*        FAIR      17  13  84 CALM      30.45F
NEWPORT NEWS   CLEAR     22  17  81 CALM      30.46F
LANGLEY AFB    CLEAR     21  17  84 W2        30.45F
FORT EUSTIS    CLEAR     21  19  92 CALM      30.43F
WILLIAMSBURG*    N/A    N/A N/A N/A MISG      30.45S
HR EXEC AP*      N/A    N/A N/A N/A MISG        N/A
FRANKLIN*      CLEAR     21  18  86 CALM      30.46F
WAKEFIELD      CLEAR     20  16  84 CALM      30.45F
$$

VAZ020-022-025-037-045-070500-
WEST CENTRAL AND SOUTHWEST VIRGINIA

CITY           SKY/WX    TMP DP  RH WIND       PRES   REMARKS
STAUNTON*      CLEAR     10   7  85 CALM      30.36F
WAYNESBORO*    FAIR      17  13  86 SW3       30.33S
HOT SPRINGS VA CLEAR     18  11  74 W12       30.17F WCI   6
LYNCHBURG      CLEAR     22  14  71 SW6       30.40F
DANVILLE       CLEAR     23  15  71 CALM      30.43S
SOUTH BOSTON*  FAIR      21  17  81 CALM      30.43S
MARTINSVILLE   CLEAR     22  20  94 CALM      30.44R
ROANOKE        CLEAR     22  17  81 CALM      30.40S
BLACKSBURG     CLEAR     17  15  91 CALM      30.36R
DUBLIN*        CLEAR     25  21  84 W5        30.35S
MARION*        CLEAR     26  17  68 W9        30.35S
HILLSVILLE*    CLEAR     26  16  65 CALM      30.32S
RICHLANDS*     FAIR      25  13  60 SW8       30.33S
WISE*          CLEAR     23  14  68 SW6       30.34S
ABINGDON*      CLEAR     27  19  70 CALM      30.39S
$$

MDZ021>025-VAZ099-100-070500-
SOUTHERN MARYLAND AND THE DELMARVA PENINSULA

CITY           SKY/WX    TMP DP  RH WIND       PRES   REMARKS
PATUXENT RIVER CLEAR     10   6  84 CALM      30.44F
BAY BRIDGE APT   N/A     19  12  73 S3        30.44S
LEONARDTOWN    CLEAR     14  12  92 CALM      30.46F
DOVER          PTCLDY    14   7  74 SW3       30.43F
GEORGETOWN     PTCLDY    13   9  84 CALM      30.44F
EASTON         PTCLDY    16  13  87 CALM      30.47F
CAMBRIDGE      PTCLDY    14  12  92 CALM      30.44S
SALISBURY      PTCLDY    16  10  77 CALM      30.44F
OCEAN CITY     CLEAR     13   9  84 CALM      30.45F
WALLOPS ISLAND CLEAR     18  13  80 NW3       30.46S
ACCOMACK*      CLEAR     19  16  86 CALM      30.45S
$$

NCZ012>017-030>032-070500-
NORTH CENTRAL AND EASTERN NORTH CAROLINA

CITY           SKY/WX    TMP DP  RH WIND       PRES   REMARKS
ROANOKE RAPIDS FAIR      25  18  74 CALM      30.45F
RALEIGH        PTCLDY    26  13  57 CALM      30.44S
ELIZABETH CITY CLEAR     24  17  74 N8        30.45F
AHOSKIE*       CLEAR     23  19  86 CALM      30.46F
EDENTON*       CLEAR     25  19  79 N6        30.46S
CURRITUCK*     CLEAR     24  19  78 NW5       30.46S
KILL DEVIL HLS CLEAR     28  20  74 N7        30.41S
MANTEO         CLEAR     28  20  72 N9        30.43S
CAPE HATTERAS  MOCLDY    31  25  78 N10G22    30.40S WCI  22
TARBORO*       FAIR      24  22  90 CALM      30.47S
GOLDSBORO      CLEAR     29  23  77 CALM      30.44S
WASHINGTON     CLEAR     26  19  74 CALM      30.45F
GREENVILLE     CLEAR     28  23  80 CALM      30.46R
NEW BERN       CLEAR     29  18  63 N7        30.45F
WILMINGTON     FAIR      32  21  64 N7        30.44S
$$

VAZ048-070500-
ELSEWHERE

CITY           SKY/WX    TMP DP  RH WIND       PRES   REMARKS
HARRISBURG PA  PTCLDY     6   2  83 E5        30.39F
BALTIMORE      CLEAR     12   9  87 CALM      30.42F
ANNAPOLIS      CLEAR     19  11  70 CALM      30.43F
ANDREWS AFB    CLEAR     12   8  86 SW3       30.41F
PHILADELPHIA   PTCLDY    17   6  62 W7        30.42F
HENDERSON NC   CLEAR     25  19  80 CALM      30.43S
GREENSBORO     CLEAR     27  19  72 SW3       30.40S
ROCKY MOUNT    CLEAR     25  20  81 CALM      30.45F
$$

VAZ100-070500-
MARINE

STATION/POSITION TIME  TEMP    WIND        PRES    WAVE   SWELL
                       AIR SEA DIR/SP/G            HT/PER HT/PER
                 (UTC) (F)     (DEG/KT/KT) (MB)    (FT/S) (FT/S)
BRANDYWINE LGT   0400   23 31  270/ 11/ 12 1030.5R
CAPE MAY NJ      0400   23 34  280/  8/ 10 1029.9F
LEWES DE         0400   17 31  250/  4/  5 1030.6R
15NM E FENWICK I 0400   24 35              1030.1F   3/ 8
OCEAN-CITY-INLET 0400   19 32  310/  4/  5 1030.4F
WACHAPREAGUE VA  0400   20 36  330/  2/  2 1031.1R
THOMAS POINT MD  0400           90/ 10/ 11   N/A
COVE POINT MD    0400   20     220/  7/  8 1030.9S
SOLOMONS ISLAND  0400      34                N/A
BISHOPS HEAD MD  0400   24 31  280/  5/  6 1030.7F
CAMBRIDGE MD     0400   17 32  210/  3/  4 1031.0F
LEWISETTA VA     0400   20 33              1031.0F
RAPPAHANNOCK LGT 0400          310/  7/  8 1031.6F
STINGRAY PT      0400   25 33  350/  4/  6   N/A     1
YORK RVR RNG VA  0400   25      10/  5/  6 1030.6S
YORKTOWN VA      0400   24 35   10/  3/  4 1031.2S
DOMINION TERM VA 0400   25      CALM  /  2 1031.4F
KIPTOPEKE VA     0400      38   40/  4/  5   N/A
CHES BAY BRIDGE  0400   26 34  360/  7/  9 1030.8F
CAPE HENRY VA    0400   25     340/  8/ 10 1029.7F
CHESAPEAKE LGHT  0300   26     350/ 12/ 13 1031.6R
WILLOUBY STN VA  0400   25      10/  5/  6 1031.7F
S CRANEY ISL VA  0400           20/  7/  8 1031.2F
CAPE HENRY BUOY  0400      35                N/A     4/ 7   2/11
1ST LANDING BUOY 0400   26 33  360/  8/ 10 1030.6F   2/ 4
OFFSHORE WE BUOY 0400      36                N/A     5/ 9   3/ 9
64NM E OF VA BCH 0400   34 50  340/ 17/ 21 1028.8R   7/10   5/10
DUCK PIER NC     0400   28 35  350/ 15/ 17 1029.6F
44100 DUCK FRF   0400      37                N/A     6/ 7   2/11
44056 DUCK FRF   0400      35                N/A     5/ 7   2/11
OREGON INLET NC  0400   29 38  350/ 12/ 15 1030.0S
HATTERAS NC      0400   31 41  350/ 20/ 23 1029.9R
CAPE LOOKOUT NC  0300          360/ 15/ 18 1029.7F
$$



USA.gov is the U.S. government's official web portal to all federal, state and local government web resources and services.